TimeCEST,TemperatureF,Dew PointF,Humidity,Sea Level PressureIn,VisibilityMPH,Wind Direction,Wind SpeedMPH,Gust SpeedMPH,PrecipitationIn,Events,Conditions,WindDirDegrees,DateUTC
12:25 AM,59.0,55.4,88,30.18,-9999.0,ENE,1.2,-,N/A,,Clear,60,2013-08-21 22:25:00
12:55 AM,59.0,55.4,88,30.15,-9999.0,ENE,1.2,-,N/A,,Clear,60,2013-08-21 22:55:00
1:25 AM,59.0,55.4,88,30.15,-9999.0,ENE,1.2,-,N/A,,Clear,60,2013-08-21 23:25:00
1:55 AM,59.0,55.4,88,30.15,-9999.0,ENE,1.2,-,N/A,,Clear,60,2013-08-21 23:55:00
2:00 AM,58,54,84,30.17,17,Calm,Calm,,,,Partly Cloudy,,2013-08-22 00:00:00
2:25 AM,59.0,55.4,88,30.15,-9999.0,ENE,2.3,-,N/A,,Clear,60,2013-08-22 00:25:00
2:55 AM,57.2,53.6,88,30.15,-9999.0,SSE,2.3,-,N/A,,Clear,150,2013-08-22 00:55:00
3:25 AM,57.2,55.4,94,30.15,-9999.0,ESE,3.5,-,N/A,,Clear,120,2013-08-22 01:25:00
3:55 AM,57.2,55.4,94,30.12,5.6,Variable,2.3,-,N/A,,Unknown,0,2013-08-22 01:55:00
4:25 AM,57.2,55.4,94,30.12,5.0,SE,3.5,-,N/A,,Unknown,130,2013-08-22 02:25:00
4:55 AM,59.0,55.4,88,30.12,4.3,Variable,1.2,-,N/A,,Unknown,0,2013-08-22 02:55:00
5:25 AM,55.4,53.6,94,30.12,4.3,East,3.5,-,N/A,,Unknown,90,2013-08-22 03:25:00
5:55 AM,57.2,53.6,88,30.12,3.7,SSE,3.5,-,N/A,Fog,Fog,160,2013-08-22 03:55:00
6:25 AM,55.4,53.6,94,30.12,3.1,SSE,2.3,-,N/A,Fog,Fog,160,2013-08-22 04:25:00
6:55 AM,55.4,53.6,94,30.12,2.5,SSE,2.3,-,N/A,Fog,Fog,160,2013-08-22 04:55:00
7:25 AM,57.2,53.6,88,30.12,2.8,SSE,2.3,-,N/A,,Mist,160,2013-08-22 05:25:00
7:55 AM,59.0,55.4,88,30.12,2.8,SSE,4.6,-,N/A,,Mist,150,2013-08-22 05:55:00
8:00 AM,59,56,87,30.13,3,SSE,4.5,,,,Mist,150,2013-08-22 06:00:00
8:25 AM,60.8,57.2,88,30.12,3.1,SE,3.5,-,N/A,,Mist,140,2013-08-22 06:25:00
8:55 AM,62.6,57.2,82,30.12,3.1,SSE,3.5,-,N/A,,Mist,160,2013-08-22 06:55:00
9:25 AM,66.2,59.0,78,30.12,-9999.0,SSW,4.6,-,N/A,,Clear,200,2013-08-22 07:25:00
9:55 AM,68.0,57.2,68,30.12,5.6,SSW,6.9,-,N/A,,Unknown,210,2013-08-22 07:55:00
10:25 AM,69.8,57.2,64,30.12,-9999.0,SSW,4.6,-,N/A,,Clear,200,2013-08-22 08:25:00
10:55 AM,69.8,57.2,64,30.12,-9999.0,WSW,9.2,-,N/A,,Clear,240,2013-08-22 08:55:00
11:00 AM,69,56,55,30.14,11,WSW,8.9,,,,Mostly Cloudy,240,2013-08-22 09:00:00
11:25 AM,69.8,59.0,68,30.12,-9999.0,WSW,9.2,-,N/A,,Clear,240,2013-08-22 09:25:00
11:55 AM,69.8,59.0,68,30.12,-9999.0,WSW,9.2,-,N/A,,Clear,250,2013-08-22 09:55:00
12:25 PM,69.8,60.8,73,30.12,-9999.0,West,8.1,-,N/A,,Clear,260,2013-08-22 10:25:00
12:55 PM,69.8,60.8,73,30.12,-9999.0,West,8.1,-,N/A,,Clear,270,2013-08-22 10:55:00
1:25 PM,69.8,60.8,73,30.12,-9999.0,West,6.9,-,N/A,,Clear,270,2013-08-22 11:25:00
1:55 PM,69.8,62.6,78,30.12,6.2,West,6.9,-,N/A,,Partly Cloudy,270,2013-08-22 11:55:00
2:25 PM,69.8,60.8,73,30.12,6.2,SW,8.1,-,N/A,,Partly Cloudy,230,2013-08-22 12:25:00
2:55 PM,68.0,60.8,78,30.12,6.2,WSW,9.2,-,N/A,,Partly Cloudy,240,2013-08-22 12:55:00
3:25 PM,68.0,62.6,83,30.12,6.2,West,6.9,-,N/A,,Scattered Clouds,260,2013-08-22 13:25:00
3:55 PM,68.0,62.6,83,30.12,6.2,WNW,4.6,-,N/A,,Scattered Clouds,290,2013-08-22 13:55:00
4:25 PM,68.0,62.6,83,30.12,6.2,WNW,4.6,-,N/A,,Scattered Clouds,300,2013-08-22 14:25:00
4:55 PM,69.8,62.6,78,30.09,6.2,WNW,3.5,-,N/A,,Partly Cloudy,300,2013-08-22 14:55:00
5:00 PM,69,61,69,30.12,17,NNW,4.5,,,,Overcast,330,2013-08-22 15:00:00
5:25 PM,69.8,62.6,78,30.09,6.2,West,4.6,-,N/A,,Scattered Clouds,280,2013-08-22 15:25:00
5:55 PM,69.8,60.8,73,30.09,6.2,NW,3.5,-,N/A,,Partly Cloudy,320,2013-08-22 15:55:00
6:25 PM,69.8,60.8,73,30.09,6.2,Variable,1.2,-,N/A,,Partly Cloudy,0,2013-08-22 16:25:00
6:55 PM,69.8,60.8,73,30.09,6.2,Variable,1.2,-,N/A,,Partly Cloudy,0,2013-08-22 16:55:00
7:25 PM,69.8,60.8,73,30.09,6.2,Variable,1.2,-,N/A,,Partly Cloudy,0,2013-08-22 17:25:00
7:55 PM,68.0,62.6,83,30.09,6.2,NW,5.8,-,N/A,,Partly Cloudy,320,2013-08-22 17:55:00
8:00 PM,67,62,78,30.11,16,NW,6.7,,,,Partly Cloudy,320,2013-08-22 18:00:00
8:25 PM,66.2,60.8,83,30.09,6.2,NW,5.8,-,N/A,,Partly Cloudy,320,2013-08-22 18:25:00
8:55 PM,64.4,60.8,88,30.09,-9999.0,NW,5.8,-,N/A,,Clear,320,2013-08-22 18:55:00
9:25 PM,62.6,59.0,88,30.09,5.6,NW,5.8,-,N/A,,Unknown,320,2013-08-22 19:25:00
9:55 PM,62.6,60.8,94,30.09,-9999.0,NNW,4.6,-,N/A,,Clear,340,2013-08-22 19:55:00
10:25 PM,62.6,60.8,94,30.09,-9999.0,NW,3.5,-,N/A,,Clear,320,2013-08-22 20:25:00
10:55 PM,62.6,60.8,94,30.09,-9999.0,North,2.3,-,N/A,,Clear,360,2013-08-22 20:55:00
11:00 PM,62,60,90,30.12,10,North,2.2,,,,Overcast,350,2013-08-22 21:00:00
11:25 PM,62.6,60.8,94,30.09,-9999.0,North,2.3,-,N/A,,Clear,350,2013-08-22 21:25:00
11:55 PM,62.6,60.8,94,30.09,-9999.0,NW,3.5,-,N/A,,Clear,320,2013-08-22 21:55:00